OK1FCB-1 Weather Reports


time (UTC)temp
C
wind
direction
speed
KPH
gust
KPH
rain 1hr
cm
rain 24hr
cm
rain mn
cm
humidity
%
barometer
mb
20260507204255 11 0.0 0.0 0.00 0.00 0.00 69 1019.2
20260507202757 11 0.0 0.0 0.00 0.00 0.00 68 1019.0
20260507194309 11 0.0 0.0 0.00 0.00 0.00 69 1018.5
20260507182817 13 0.0 0.0 0.00 0.00 0.00 61 1017.5
20260507175822 15 0.0 0.0 0.00 0.00 0.00 57 1017.3
20260507172836 17 0.0 0.0 0.00 0.00 0.00 49 1016.7
20260507155906 24 0.0 0.0 0.00 0.00 0.00 39 1016.1
20260507154410 25 0.0 0.0 0.00 0.00 0.00 36 1016.1
20260507154404 25 0.0 0.0 0.00 0.00 0.00 36 1016.1
20260507152911 24 0.0 0.0 0.00 0.00 0.00 40 1016.1
20260507145913 24 0.0 0.0 0.00 0.00 0.00 40 1016.0
20260507135917 22 0.0 0.0 0.00 0.00 0.00 42 1016.1
20260507132919 21 0.0 0.0 0.00 0.00 0.00 46 1016.0
20260507131419 22 0.0 0.0 0.00 0.00 0.00 44 1016.0
20260507125926 21 0.0 0.0 0.00 0.00 0.00 47 1016.0
20260507125921 21 0.0 0.0 0.00 0.00 0.00 47 1016.0
20260507124425 22 0.0 0.0 0.00 0.00 0.00 43 1015.8
20260507121428 21 0.0 0.0 0.00 0.00 0.00 50 1015.7
20260507114433 20 0.0 0.0 0.00 0.00 0.00 53 1015.7
20260507095951 20 0.0 0.0 0.00 0.00 0.00 53 1015.2
20260507085956 17 0.0 0.0 0.00 0.00 0.00 62 1015.0
20260507081506 16 0.0 0.0 0.00 0.00 0.00 67 1014.6
20260507074503 15 0.0 0.0 0.00 0.00 0.00 68 1014.7
20260507073012 15 0.0 0.0 0.00 0.00 0.00 70 1014.6
20260507073005 15 0.0 0.0 0.00 0.00 0.00 70 1014.6
20260507071513 15 0.0 0.0 0.00 0.00 0.00 70 1014.5
20260507071507 15 0.0 0.0 0.00 0.00 0.00 70 1014.5
20260507070017 16 0.0 0.0 0.00 0.00 0.00 66 1014.2
20260507070013 16 0.0 0.0 0.00 0.00 0.00 66 1014.2
20260507064519 16 0.0 0.0 0.00 0.00 0.00 66 1014.2
20260507064513 16 0.0 0.0 0.00 0.00 0.00 66 1014.2
20260507050023 12 0.0 0.0 0.00 0.00 0.00 81 1013.0
20260507044524 12 0.0 0.0 0.00 0.00 0.00 82 1012.9
20260507043032 12 0.0 0.0 0.00 0.00 0.00 82 1012.7
20260507043027 12 0.0 0.0 0.00 0.00 0.00 82 1012.7
20260507041529 12 0.0 0.0 0.00 0.00 0.00 82 1012.5
20260507040037 11 0.0 0.0 0.00 0.00 0.00 82 1012.4
20260507040031 11 0.0 0.0 0.00 0.00 0.00 82 1012.4
20260507033036 11 0.0 0.0 0.00 0.00 0.00 82 1011.9
20260507031538 11 0.0 0.0 0.00 0.00 0.00 82 1012.0
20260507030039 11 0.0 0.0 0.00 0.00 0.00 82 1011.9
20260507023044 11 0.0 0.0 0.00 0.00 0.00 82 1012.1
20260507021551 11 0.0 0.0 0.00 0.00 0.00 82 1012.0
20260507021545 11 0.0 0.0 0.00 0.00 0.00 82 1012.0
20260507014555 11 0.0 0.0 0.00 0.00 0.00 82 1011.6
20260507014550 11 0.0 0.0 0.00 0.00 0.00 82 1011.6
20260507013058 11 0.0 0.0 0.00 0.00 0.00 82 1011.6
20260507013052 11 0.0 0.0 0.00 0.00 0.00 82 1011.6
20260507011600 11 0.0 0.0 0.00 0.00 0.00 82 1011.3
20260507011555 11 0.0 0.0 0.00 0.00 0.00 82 1011.3
20260507004605 11 0.0 0.0 0.00 0.00 0.00 81 1010.8
20260507004600 11 0.0 0.0 0.00 0.00 0.00 81 1010.8
20260507001610 11 0.0 0.0 0.00 0.00 0.00 81 1010.4
20260507001604 11 0.0 0.0 0.00 0.00 0.00 81 1010.4
20260507000106 12 0.0 0.0 0.00 0.00 0.00 81 1010.5
20260506234614 12 0.0 0.0 0.00 0.00 0.00 81 1010.6
20260506234608 12 0.0 0.0 0.00 0.00 0.00 81 1010.6
20260506221622 12 0.0 0.0 0.00 0.00 0.00 81 1011.3